WA7BMK Weather Reports


Display with metric or nautical units.
time (UTC)temp
F
wind
direction
speed
MPH
gust
MPH
rain 1hr
in
rain 24hr
in
rain mn
in
humidity
%
barometer
mb
20260905083040 50 0 0.0 0.0 0.00 0.02 0.00 90 1016.9
20260905081539 50 0 0.0 0.0 0.00 0.02 0.00 90 1017.0
20260905080051 50 0 0.0 0.0 0.00 0.02 0.00 90 1017.0
20260905074538 50 0 0.0 0.0 0.00 0.03 0.00 89 1016.9
20260905073045 50 0 0.0 0.0 0.00 0.03 0.00 89 1016.9
20260905071554 51 0 0.0 0.0 0.00 0.03 0.00 89 1016.5
20260905070048 51 0 0.0 0.0 0.00 0.03 0.00 88 1016.4
20260905064549 52 0 0.0 0.0 0.00 0.04 0.03 88 1016.4
20260905063040 52 0 0.0 0.0 0.00 0.04 0.03 87 1016.3
20260905061604 53 0 0.0 0.0 0.00 0.04 0.03 88 1016.2
20260905060044 53 0 0.0 0.0 0.00 0.04 0.03 87 1016.2
20260905054543 53 0 0.0 0.0 0.00 0.04 0.03 87 1016.2
20260905053042 53 0 0.0 0.0 0.00 0.04 0.03 86 1016.1
20260905051544 54 0 0.0 0.0 0.00 0.04 0.03 85 1016.1
20260905050038 54 0 0.0 0.0 0.00 0.04 0.03 84 1016.2
20260905044546 55 0 0.0 0.0 0.00 0.04 0.03 83 1016.2
20260905043107 55 0 0.0 0.0 0.00 0.04 0.03 83 1016.1
20260905041541 56 0 0.0 0.0 0.00 0.04 0.03 81 1016.1
20260905040105 57 0 0.0 0.0 0.00 0.04 0.03 79 1016.1
20260905034543 57 0 0.0 0.0 0.00 0.06 0.03 78 1016.1
20260905033042 58 0 0.0 1.0 0.00 0.06 0.03 76 1016.1
20260905031544 59 0 0.0 0.0 0.00 0.06 0.03 74 1015.8
20260905030044 60 0 0.0 0.0 0.00 0.06 0.03 73 1015.5
20260905024539 61 0 0.0 0.0 0.00 0.19 0.03 71 1015.5
20260905023050 62 0 0.0 0.0 0.00 0.19 0.03 71 1015.7
20260905021548 63 0 0.0 3.0 0.00 0.19 0.03 68 1015.6
20260905020044 64 360 0.0 2.0 0.00 0.19 0.03 65 1015.6
20260905014543 64 360 2.0 6.0 0.00 0.23 0.03 63 1015.4
20260905013044 65 149 2.0 6.0 0.00 0.23 0.03 63 1015.2
20260905011540 65 107 2.0 7.0 0.00 0.23 0.03 63 1015.0
20260905010049 64 42 2.0 8.0 0.00 0.23 0.03 66 1014.7
20260905004543 63 109 2.0 10.0 0.00 0.23 0.03 69 1014.7
20260905003040 63 117 4.0 11.0 0.00 0.23 0.03 68 1014.7
20260905001539 63 360 3.0 11.0 0.00 0.23 0.03 69 1015.0
20260905000041 65 360 3.0 12.0 0.00 0.23 0.03 62 1014.8
20260904234546 68 147 8.0 15.0 0.00 0.23 0.03 59 1014.6
20260904233039 71 88 3.0 7.0 0.00 0.23 0.03 56 1014.3
20260904231542 68 273 2.0 5.0 0.00 0.23 0.03 55 1014.2
20260904230044 69 327 0.0 4.0 0.00 0.23 0.03 59 1014.2
20260904224544 68 300 0.0 3.0 0.00 0.23 0.03 61 1014.2
20260904223040 66 200 1.0 3.0 0.00 0.23 0.03 62 1014.1
20260904221540 66 0 1.0 3.0 0.00 0.23 0.03 64 1014.2
20260904220106 66 173 1.0 4.0 0.00 0.23 0.03 61 1014.1
20260904214542 66 0 1.0 4.0 0.00 0.23 0.03 66 1013.9
20260904213040 65 0 0.0 2.0 0.00 0.23 0.03 70 1013.8
20260904211539 65 0 0.0 4.0 0.00 0.23 0.03 71 1013.7
20260904210046 66 0 1.0 4.0 0.00 0.23 0.03 65 1013.8
20260904204540 67 0 0.0 5.0 0.00 0.23 0.03 66 1013.8
20260904203051 65 282 2.0 6.0 0.00 0.23 0.03 68 1014.0
20260904201544 65 275 2.0 6.0 0.00 0.23 0.03 68 1014.0
20260904200044 65 0 1.0 6.0 0.00 0.23 0.03 70 1014.0
20260904194545 65 312 0.0 6.0 0.00 0.23 0.03 71 1013.9
20260904193044 65 151 1.0 4.0 0.00 0.23 0.03 72 1013.9
20260904191547 63 309 1.0 3.0 0.00 0.23 0.03 75 1014.0
20260904190046 62 225 0.0 6.0 0.00 0.23 0.03 78 1014.0
20260904184550 61 257 0.0 4.0 0.00 0.23 0.03 77 1014.0
20260904183051 60 0 0.0 3.0 0.00 0.23 0.03 83 1014.2
20260904181542 59 252 1.0 3.0 0.00 0.23 0.03 85 1014.2
20260904180104 58 340 0.0 3.0 0.00 0.23 0.03 88 1014.2
20260904174545 57 0 0.0 3.0 0.00 0.23 0.03 89 1014.2
20260904173045 57 0 0.0 3.0 0.00 0.23 0.03 92 1014.1
20260904171549 56 360 0.0 4.0 0.00 0.23 0.03 93 1014.1
20260904170046 55 0 0.0 3.0 0.00 0.23 0.03 94 1014.0
20260904164543 55 0 0.0 2.0 0.00 0.23 0.03 94 1014.0
20260904163039 55 0 0.0 2.0 0.00 0.23 0.03 94 1014.0
20260904161541 54 94 0.0 1.0 0.00 0.23 0.03 94 1014.0
20260904160040 54 0 0.0 2.0 0.00 0.23 0.03 94 1013.9
20260904154539 54 0 0.0 1.0 0.00 0.23 0.03 94 1013.7
20260904153050 53 0 0.0 2.0 0.00 0.23 0.03 94 1013.5
20260904151540 53 0 0.0 0.0 0.00 0.23 0.03 94 1013.5
20260904150046 53 0 0.0 0.0 0.00 0.23 0.03 94 1013.5
20260904144556 53 0 0.0 0.0 0.00 0.23 0.03 94 1013.3
20260904143047 52 0 0.0 0.0 0.00 0.23 0.03 94 1013.2
20260904141546 52 0 0.0 0.0 0.00 0.23 0.03 94 1013.0
20260904140054 52 0 0.0 0.0 0.01 0.23 0.03 94 1012.8
20260904134540 52 0 0.0 0.0 0.01 0.25 0.03 94 1012.5
20260904133040 52 0 0.0 0.0 0.01 0.25 0.03 94 1012.4
20260904131542 52 0 0.0 0.0 0.01 0.25 0.03 94 1012.4
20260904130044 52 0 0.0 0.0 0.00 0.24 0.02 94 1012.2
20260904124539 52 0 0.0 0.0 0.00 0.26 0.02 93 1012.2
20260904123040 52 0 0.0 0.0 0.00 0.26 0.02 93 1012.1
20260904121537 52 0 0.0 0.0 0.00 0.26 0.02 93 1012.1
20260904120035 52 0 0.0 0.0 0.00 0.26 0.02 93 1012.0
20260904114544 52 0 0.0 0.0 0.00 0.28 0.02 93 1012.0
20260904113039 53 0 0.0 0.0 0.00 0.28 0.02 93 1011.7
20260904111539 53 0 0.0 0.0 0.00 0.28 0.02 93 1011.7
20260904110043 53 0 0.0 0.0 0.00 0.28 0.02 93 1011.6
20260904104539 53 0 0.0 0.0 0.00 0.28 0.02 93 1011.6
20260904103041 53 0 0.0 0.0 0.01 0.28 0.02 93 1011.6
20260904101539 53 0 0.0 0.0 0.01 0.28 0.02 93 1011.6
20260904100045 53 0 0.0 0.0 0.01 0.28 0.02 93 1011.5
20260904094544 53 0 0.0 0.0 0.01 0.28 0.02 93 1011.3
20260904093045 53 0 0.0 0.0 0.00 0.27 0.01 93 1011.3
20260904091541 53 0 0.0 0.0 0.00 0.27 0.01 93 1011.2
20260904090039 53 0 0.0 0.0 0.00 0.27 0.01 93 1011.4
20260904084540 53 0 0.0 0.0 0.00 0.27 0.01 93 1011.3